TimeAST,TemperatureF,Dew PointF,Humidity,Sea Level PressureIn,VisibilityMPH,Wind Direction,Wind SpeedMPH,Gust SpeedMPH,PrecipitationIn,Events,Conditions,WindDirDegrees,DateUTC
12:00 AM,73.4,69.8,88,30.01,6.2,North,5.8,-,N/A,,Partly Cloudy,10,2012-12-12 04:00:00
1:00 AM,73.4,69.8,88,30.01,6.2,NNE,6.9,-,N/A,,Partly Cloudy,20,2012-12-12 05:00:00
2:00 AM,73.4,69.8,88,30.01,-9999.0,North,5.8,-,N/A,,Clear,360,2012-12-12 06:00:00
3:00 AM,71.6,69.8,94,29.98,-9999.0,NNE,5.8,-,N/A,,Clear,20,2012-12-12 07:00:00
4:00 AM,71.6,69.8,94,29.98,6.2,NNE,6.9,-,N/A,,Scattered Clouds,20,2012-12-12 08:00:00
5:00 AM,71.6,69.8,94,30.01,6.2,NE,8.1,-,N/A,,Scattered Clouds,40,2012-12-12 09:00:00
6:00 AM,69.8,68.0,94,30.01,6.2,NNE,8.1,-,N/A,,Scattered Clouds,30,2012-12-12 10:00:00
7:00 AM,69.8,68.0,94,30.01,6.2,NNE,5.8,-,N/A,,Scattered Clouds,20,2012-12-12 11:00:00
8:00 AM,73.4,68.0,83,30.04,6.2,NNE,8.1,-,N/A,,Scattered Clouds,20,2012-12-12 12:00:00
9:00 AM,78.8,73.4,83,30.06,6.2,North,8.1,-,N/A,,Scattered Clouds,10,2012-12-12 13:00:00
10:00 AM,80.6,73.4,79,30.06,6.2,NE,6.9,-,N/A,,Scattered Clouds,40,2012-12-12 14:00:00
11:00 AM,82.4,73.4,74,30.06,6.2,ENE,10.4,-,N/A,,Mostly Cloudy,70,2012-12-12 15:00:00
12:00 PM,84.2,73.4,70,30.04,6.2,East,8.1,-,N/A,,Scattered Clouds,80,2012-12-12 16:00:00
1:00 PM,86.0,73.4,66,30.01,6.2,East,8.1,-,N/A,,Scattered Clouds,100,2012-12-12 17:00:00
2:00 PM,86.0,73.4,66,29.98,6.2,ESE,9.2,-,N/A,,Scattered Clouds,120,2012-12-12 18:00:00
3:00 PM,86.0,71.6,62,29.95,6.2,SSE,11.5,-,N/A,,Scattered Clouds,160,2012-12-12 19:00:00
4:00 PM,86.0,73.4,66,29.95,6.2,SSE,8.1,-,N/A,,Scattered Clouds,150,2012-12-12 20:00:00
5:00 PM,86.0,71.6,62,29.95,5.0,ESE,8.1,-,N/A,Rain,Light Rain,110,2012-12-12 21:00:00
6:00 PM,78.8,69.8,74,29.95,6.2,ESE,5.8,-,N/A,,Scattered Clouds,110,2012-12-12 22:00:00
7:00 PM,78.8,69.8,74,29.95,6.2,ENE,8.1,-,N/A,,Scattered Clouds,60,2012-12-12 23:00:00
8:00 PM,77.0,69.8,78,29.98,6.2,ENE,8.1,-,N/A,,Scattered Clouds,60,2012-12-13 00:00:00
9:00 PM,77.0,69.8,78,29.98,6.2,ENE,8.1,-,N/A,,Scattered Clouds,60,2012-12-13 01:00:00
10:00 PM,75.2,71.6,89,30.01,6.2,NNE,4.6,-,N/A,,Scattered Clouds,20,2012-12-13 02:00:00
11:00 PM,75.2,69.8,83,30.04,6.2,North,4.6,-,N/A,,Partly Cloudy,10,2012-12-13 03:00:00